RH
25 70 76 67 60 76 81 90 93 84 64 63 58 32 38 48 50 51 51 35 36 67 73 77 86 95 94 93 90 83 82 59 49 57 46 33 62 75 92 99 97 97 93 72
28 66 57 59 60 73 86 82 77 71 64 62 58 47 52 42 39 55 57 38 19 32 60 73 72 85 80 84 74 88 87 82 64 64 67 56 43 51 68 74 70 96 94 89
14 38 37 61 65 86 95 84 71 50 45 55 56 68 64 39 44 56 62 55 23 9 23 64 76 68 71 54 69 81 79 80 73 59 56 56 52 48 46 52 56 61 72 88
8 17 46 73 85 86 93 74 64 50 50 54 42 66 69 50 37 53 71 52 36 11 10 44 74 72 65 52 58 63 74 85 85 75 71 62 60 70 66 64 63 70 76 74
10 16 38 64 89 93 88 81 60 68 76 51 22 53 72 63 48 56 65 65 58 48 9 22 67 73 74 54 59 66 69 88 93 87 74 78 98 97 96 84 88 73 77 74
9 13 18 44 61 88 82 63 64 80 74 42 36 38 62 58 51 58 68 74 56 45 10 12 59 67 77 70 57 59 72 82 82 89 92 90 94 92 83 76 74 79 81 78
9 8 11 24 38 90 83 68 78 81 72 54 44 44 47 45 58 55 61 60 55 33 8 18 46 53 58 73 81 67 62 77 83 80 96 93 96 74 69 28 15 54 75 83
6 6 7 18 20 47 68 71 89 84 73 74 47 42 59 57 54 49 54 65 69 60 20 10 31 46 50 61 83 87 84 90 89 80 85 46 19 37 31 10 87 83 63 68
5 5 7 36 20 47 75 87 89 80 94 56 66 47 59 57 42 55 55 51 83 75 54 22 16 24 54 68 77 90 93 84 58 62 40 21 13 14 8 6 10 15 40 23
7 8 8 17 28 37 88 84 90 96 79 69 53 45 59 58 38 54 56 42 53 51 49 29 27 31 44 53 63 91 95 92 93 42 32 21 17 13 11 8 4 4 4 4
10 8 12 10 16 36 91 95 92 88 71 51 26 31 57 68 44 56 54 45 40 32 28 24 28 34 38 42 68 82 96 80 57 30 26 22 16 15 15 14 10 6 4 4
15 12 15 10 19 26 92 95 88 62 50 50 39 11 59 60 48 36 51 49 40 34 36 35 22 24 21 22 49 57 62 43 30 33 33 36 37 35 31 19 14 15 12 8
22 21 14 14 23 24 55 91 60 52 46 41 45 23 43 71 66 58 51 47 45 48 41 32 23 20 30 34 34 40 45 38 34 25 22 33 37 37 34 28 27 20 17 20
30 28 27 20 34 49 69 67 46 44 40 43 46 34 40 72 64 65 57 50 37 44 34 36 31 24 43 37 31 44 41 25 20 15 12 14 17 11 11 20 20 23 26 25
39 33 36 38 39 45 55 49 43 51 49 46 48 56 43 66 72 74 71 56 43 36 44 48 32 26 29 33 31 31 21 19 18 19 26 25 14 8 6 8 9 9 15 19
42 45 42 45 48 47 44 45 43 43 55 52 46 54 59 66 72 71 66 50 38 39 56 59 60 59 53 46 41 23 24 24 28 30 23 16 15 13 9 5 4 8 9 11
44 44 48 47 49 49 50 41 41 39 44 51 54 52 53 54 69 68 68 55 54 52 52 54 43 47 58 62 58 28 29 28 28 25 17 20 22 20 14 10 9 6 6 9
55 63 50 49 50 50 50 50 42 34 40 46 50 60 42 62 70 73 61 59 61 60 57 50 53 55 63 71 75 47 32 32 32 34 32 38 50 51 40 17 21 19 14 11
47 60 57 52 51 52 52 48 44 36 24 34 45 57 56 52 65 74 62 70 74 70 62 62 59 72 89 71 89 59 41 42 36 43 54 57 61 71 64 38 18 24 25 21
38 58 72 61 54 52 52 59 52 38 16 28 36 48 56 78 74 79 76 69 82 80 79 61 55 78 89 76 91 71 56 57 59 59 62 64 72 74 69 64 43 16 19 23
24 46 61 76 70 66 60 56 52 50 30 24 41 39 43 62 68 74 65 65 80 79 88 69 82 96 88 79 52 50 58 61 64 62 54 58 57 56 58 54 60 38 17 21
21 21 36 68 77 77 69 64 58 66 65 24 36 45 46 45 63 70 64 66 61 60 71 74 77 85 62 68 68 48 56 59 50 45 59 58 49 39 23 23 32 26 18 21
62 66 53 38 48 70 79 77 60 53 70 70 40 63 67 65 69 63 62 61 62 57 76 65 83 72 69 56 46 44 44 43 34 36 35 31 25 22 22 16 16 16 16 23
70 78 71 76 65 52 50 58 61 69 83 90 90 71 66 76 84 81 77 77 71 74 84 81 70 77 78 58 51 46 29 28 36 27 29 32 28 26 23 17 22 22 22 22
55 60 68 58 59 61 65 66 74 77 76 93 92 89 88 71 65 65 95 96 99 98 94 76 92 90 60 31 22 27 43 35 26 28 31 36 43 41 26 20 26 25 22 15
71 95 83 74 64 56 52 46 47 73 96 98 100 91 85 81 90 89 86 92 97 97 95 85 42 34 35 41 40 36 40 43 51 51 50 48 43 35 26 23 17 10 10 8
Wind_Speed
20 25 21 15 7 3 3 9 5 2 5 11 13 9 11 12 16 19 20 22 24 23 20 17 14 11 5 14 13 14 18 11 11 9 7 4 4 4 4 8 4 5 8 9
16 24 22 18 9 7 5 5 5 4 2 7 11 10 13 10 14 17 18 21 24 24 21 18 13 5 5 4 9 6 14 15 12 13 10 7 4 3 2 3 2 2 4 6
15 19 21 17 12 9 7 11 13 8 2 6 7 8 10 9 13 17 19 23 22 23 24 20 13 3 2 1 6 10 13 14 14 13 11 9 6 3 4 5 4 4 7 8
13 15 22 21 17 15 15 18 14 9 3 3 2 5 11 5 11 12 17 20 21 24 23 21 12 4 4 4 4 7 10 11 13 11 10 10 6 6 8 9 9 11 12 12
14 14 23 24 22 22 17 22 13 5 1 9 7 3 13 10 5 9 14 20 20 23 22 20 11 6 3 4 3 6 8 7 7 8 8 8 7 3 7 10 9 12 14 18
16 18 20 25 26 27 21 21 15 9 7 7 7 4 7 13 8 12 14 15 16 19 17 17 10 6 4 2 4 5 5 8 9 11 10 8 5 5 7 8 11 12 15 17
22 21 20 25 27 27 19 22 17 15 12 10 9 5 4 12 14 7 11 17 15 17 14 12 8 7 4 4 3 3 2 5 9 8 8 5 5 4 4 8 12 14 12 12
23 24 24 28 24 27 35 28 22 19 13 10 14 10 7 11 7 12 20 17 13 12 13 11 7 6 6 5 4 2 4 8 10 7 2 1 6 5 6 7 5 4 5 6
20 19 24 34 27 26 26 21 20 20 16 15 14 15 6 5 5 13 19 24 14 10 12 11 8 7 5 7 8 10 12 5 5 4 2 4 5 6 7 7 8 9 8 8
20 18 21 27 31 30 27 24 18 10 12 13 17 19 5 8 7 8 15 21 11 5 8 9 7 6 6 9 10 11 20 3 5 5 4 5 7 8 9 8 7 8 10 8
18 17 20 26 28 28 27 21 16 16 16 15 18 21 9 8 10 8 10 13 12 9 11 11 8 7 6 7 6 9 9 11 11 9 9 7 8 11 11 11 11 10 11 12
17 17 18 20 25 25 26 21 20 23 23 20 14 16 14 9 18 10 11 12 7 13 10 12 9 8 8 7 6 7 8 11 13 14 12 10 13 13 13 13 14 14 13 13
19 16 17 19 21 21 28 22 21 27 24 23 23 18 14 11 12 13 8 10 13 13 21 14 10 9 10 8 7 7 8 10 9 12 14 17 15 15 16 16 16 17 17 17
21 20 17 17 17 17 21 22 25 26 26 25 26 20 18 14 11 14 15 11 15 18 25 20 13 8 9 11 10 10 10 12 13 13 14 17 21 22 21 21 20 18 18 18
21 23 20 16 14 21 27 29 27 21 23 24 23 16 18 17 11 13 15 14 17 22 12 12 10 6 6 9 9 9 10 12 15 16 18 19 24 26 25 26 24 22 20 20
23 24 21 18 14 16 28 31 33 29 24 25 31 22 20 18 17 18 16 19 21 19 14 13 13 17 14 13 15 15 15 15 18 21 21 20 23 26 26 26 27 26 25 24
25 24 25 21 20 24 24 26 31 39 33 28 29 27 22 22 17 16 13 15 15 14 17 19 24 26 25 24 24 22 20 20 20 22 22 21 23 25 26 26 25 25 27 28
35 28 28 29 27 29 26 27 28 35 40 34 30 28 25 21 19 15 12 17 17 16 16 20 25 31 33 42 42 29 22 21 22 22 23 24 28 30 30 29 25 21 22 25
37 34 32 33 32 34 35 32 31 26 28 41 37 32 22 25 27 22 21 23 20 19 19 24 29 29 31 40 17 20 23 22 25 24 25 26 29 32 31 34 36 31 28 25
39 39 38 38 39 41 39 38 35 29 23 28 34 36 28 21 31 25 27 19 18 21 23 28 32 37 19 27 18 19 21 25 26 28 29 30 33 36 37 37 37 37 33 32
36 43 43 41 43 44 44 42 36 28 21 24 28 36 30 23 28 24 21 17 22 25 26 31 32 37 31 18 21 23 27 30 32 32 31 32 35 37 37 37 36 35 35 33
32 36 45 47 44 43 39 37 33 28 24 22 28 30 32 30 26 25 24 26 29 30 33 34 32 25 28 27 29 29 30 33 33 34 34 36 37 37 38 38 38 35 32 31
31 29 27 32 47 47 42 38 38 34 27 22 22 23 26 28 29 34 35 33 35 38 37 38 29 29 34 32 32 33 34 35 35 36 36 37 37 38 39 39 36 34 33 31
28 23 26 23 21 27 31 30 26 21 30 30 27 27 29 29 29 31 35 38 44 44 37 31 31 32 35 35 35 36 37 38 37 38 38 40 40 39 39 35 33 32 32 32
16 15 16 22 24 16 20 21 26 29 28 35 37 34 29 32 35 39 39 36 37 40 36 30 31 33 36 37 39 38 36 35 36 37 38 38 37 36 34 33 32 31 31 30
21 23 20 17 21 25 19 21 27 28 24 27 33 32 30 34 33 37 34 36 41 42 29 28 28 32 34 34 36 36 35 32 31 32 33 34 33 29 29 30 32 31 32 30
Wind_Direction
208 209 226 238 220 214 337 102 110 116 54 27 8 17 4 358 8 23 25 19 18 25 31 25 20 29 30 214 225 257 210 184 169 179 186 206 156 118 116 138 114 176 169 165
222 217 229 233 211 225 279 191 190 236 72 9 11 356 26 12 17 22 17 17 15 20 17 14 6 28 44 184 198 192 188 187 173 187 194 207 193 150 170 181 103 79 159 196
240 229 233 225 222 220 242 222 237 260 31 25 54 10 33 43 28 32 20 13 8 6 13 12 7 22 249 322 205 181 174 175 174 183 198 217 209 236 250 273 281 254 239 241
246 244 230 223 225 234 225 222 239 253 356 359 21 51 352 355 23 22 23 20 5 1 4 9 15 62 22 351 214 169 167 160 171 188 195 203 197 222 249 250 256 268 263 258
251 238 227 223 220 234 233 238 242 257 304 306 282 306 32 24 21 357 14 14 358 357 359 4 18 63 108 25 90 143 150 158 179 190 200 188 186 196 248 266 274 278 281 268
241 237 232 229 218 232 244 248 240 234 258 313 257 317 16 22 24 345 350 3 352 343 356 1 357 5 95 28 60 99 142 155 176 177 204 217 194 234 257 272 279 282 280 278
253 245 236 241 223 229 244 259 242 238 256 276 266 279 343 16 40 34 28 360 353 347 345 8 351 329 324 352 26 66 118 170 184 193 219 191 194 245 276 293 295 294 296 282
254 249 251 243 242 233 247 252 243 229 238 258 269 268 292 7 29 18 2 340 317 330 340 342 360 337 308 293 276 302 259 255 174 162 100 315 258 268 295 308 312 344 349 358
251 254 241 237 242 236 250 252 258 241 253 259 262 252 302 323 4 12 3 353 296 304 310 324 335 341 295 279 280 243 285 187 132 111 17 313 290 293 303 302 295 287 288 304
241 242 232 231 234 237 247 250 251 262 278 265 268 244 247 302 329 357 352 6 26 337 309 317 315 310 325 321 309 309 321 79 87 6 329 320 315 316 311 304 292 281 286 288
240 236 235 231 229 224 230 230 244 255 258 268 267 250 249 286 293 4 9 343 9 19 349 335 331 331 344 328 322 327 327 8 352 339 316 315 323 324 311 298 291 284 275 276
230 227 219 234 230 221 220 233 233 252 250 252 274 257 214 270 283 275 337 341 3 23 4 332 339 340 335 344 315 316 318 338 335 330 311 327 324 313 306 296 288 283 282 282
236 231 212 216 226 224 216 229 240 254 255 265 269 262 215 232 283 298 317 338 311 328 339 339 330 356 349 338 332 329 322 324 324 314 333 327 319 305 298 293 283 277 276 278
239 234 227 219 223 232 227 231 242 258 259 262 257 263 219 229 253 281 293 309 317 303 312 318 319 340 350 339 327 320 323 316 319 328 330 322 319 312 300 290 287 280 274 276
240 244 236 212 204 214 225 235 243 259 257 253 266 260 232 236 256 261 280 298 296 315 334 318 312 315 325 310 304 300 302 310 313 315 315 319 318 315 305 293 286 282 281 278
233 238 238 229 235 237 230 240 246 247 252 252 260 250 248 240 245 277 288 285 284 297 347 332 323 323 309 306 306 304 301 304 305 303 304 311 316 311 308 301 289 282 278 275
257 242 246 244 244 250 263 250 253 251 250 256 266 276 255 241 244 267 265 286 276 268 294 296 310 312 306 303 296 287 289 292 292 299 309 318 308 301 300 299 299 294 286 278
250 255 253 249 249 250 260 267 266 259 251 255 266 269 252 240 253 252 257 268 277 281 294 303 310 311 307 310 280 270 269 279 289 295 298 297 298 298 299 295 288 283 283 284
244 248 247 246 247 254 260 268 283 279 261 249 258 266 266 248 256 255 262 264 264 281 293 304 316 298 316 324 249 266 278 283 283 287 290 291 290 292 295 298 298 295 292 286
239 241 246 244 249 257 266 277 285 290 272 246 249 258 267 258 250 248 245 260 268 281 290 298 295 295 313 324 260 272 283 282 283 286 288 291 293 299 301 299 300 297 295 293
247 242 244 250 251 256 266 276 282 293 295 249 248 254 263 259 270 256 247 267 271 281 286 305 305 299 297 298 287 286 280 280 282 290 292 292 289 289 290 292 291 291 290 292
251 252 245 245 253 257 262 267 278 288 292 259 250 256 261 267 267 274 274 275 280 284 288 296 285 293 302 294 290 291 282 282 284 284 282 284 287 292 294 295 292 288 284 285
246 254 257 255 249 256 262 266 274 282 278 276 261 261 262 266 268 276 279 277 275 278 277 283 270 279 283 285 284 282 281 280 280 282 284 285 287 289 290 288 288 288 286 285
241 246 243 247 257 261 262 264 259 275 269 263 259 261 266 272 271 270 276 278 282 281 264 256 257 269 281 283 282 283 284 283 285 284 287 287 287 285 286 287 288 287 283 282
244 243 235 242 245 252 251 248 246 257 262 259 260 259 266 273 278 278 272 268 258 268 246 246 259 274 275 278 280 279 279 279 283 285 285 286 289 287 286 287 288 286 283 282
227 219 228 237 240 249 263 262 259 253 251 260 254 259 264 270 273 271 288 253 269 268 242 249 265 269 272 276 279 283 285 286 290 291 290 292 291 287 285 286 286 285 284 284